[keps] orb09099.2l.amsat

Ray Hoad r.hoad at att.net
Thu Apr 9 19:26:30 PDT 2009


SB KEPS @ AMSAT  $ORB09099.N
2Line Orbital Elements 09099.AMSAT

HR AMSAT ORBITAL ELEMENTS FOR AMATEUR SATELLITES IN NASA FORMAT
FROM WA5QGD FORT WORTH,TX April 9, 2009
Send Subscribe/unsubscribe to KEPS at 
http://www.amsat.org/mailman/listinfo/keps
BID: ORB09099.N

DECODE 2-LINE ELSETS WITH THE FOLLOWING KEY:
1 AAAAAU 00  0  0 BBBBB.BBBBBBBB  .CCCCCCCC  00000-0  00000-0 0  DDDZ
2 AAAAA EEE.EEEE FFF.FFFF GGGGGGG HHH.HHHH III.IIII JJ.JJJJJJJJKKKKKZ
KEY: A-CATALOGNUM B-EPOCHTIME C-DECAY D-ELSETNUM E-INCLINATION F-RAAN
G-ECCENTRICITY H-ARGPERIGEE I-MNANOM J-MNMOTION K-ORBITNUM Z-CHECKSUM

TO ALL RADIO AMATEURS BT

AO-07
1 07530U 74089B   09099.61489822 -.00000027  00000-0  10000-3 0  4472
2 07530 101.4330 126.7955 0012111 043.8428 316.3602 12.53575481574120
AO-10
1 14129U 83058B   09097.31715068 -.00000143  00000-0  10000-3 0 06425
2 14129 025.9513 163.0747 5987444 212.2506 090.3894 02.05870720194166
UO-11
1 14781U 84021B   09098.69935427  .00000267  00000-0  42815-4 0  9312
2 14781 098.1151 142.5190 0008749 193.6658 166.4323 14.79704487347556
RS-15
1 23439U 94085A   09098.88904555 -.00000039  00000-0  10000-3 0 02177
2 23439 064.8137 016.8754 0146929 064.9485 296.6607 11.27553244588304
FO-29
1 24278U 96046B   09098.70976040 -.00000062  00000-0 -27764-4 0 00448
2 24278 098.5634 342.0528 0350720 170.2742 190.5425 13.52941896624358
SO-33
1 25509U 98061B   09098.29947517  .00000147  00000-0  18825-4 0 04282
2 25509 031.4290 087.6666 0354095 087.4867 276.6206 14.28249091545831
AO-40
1 26609U 00072B   09096.92754300 -.00000438  00000-0  10000-3 0  2124
2 26609 009.1261 024.6782 7961427 192.2223 117.8823 01.25583575 38732
RS-22
1 27939U 03042A   09098.72553134  .00000099  00000-0  28045-4 0 07613
2 27939 097.9562 336.0869 0013615 356.6415 003.4694 14.63306275295415
VO-52
1 28650U 05017B   09098.68911421  .00000393  00000-0  56406-4 0  1983
2 28650 097.7491 162.5484 0026046 255.6570 104.1745 14.81571095212354
PO-63
1 29712U 07001D   09099.75656958  .00000469  00000-0  67944-4 0  3860
2 29712 097.8355 157.7823 0015017 134.1491 226.0957 14.80498287121343
AO-16
1 20439U 90005D   09098.67213150  .00000006  00000-0  17571-4 0 05776
2 20439 098.2721 070.2613 0011452 022.4713 337.6961 14.31820460003209
LO-19
1 20442U 90005G   09098.67063769  .00000014  00000-0  20265-4 0  4962
2 20442 098.2367 077.7895 0012261 019.6364 340.5297 14.32056647  3363
AO-27
1 22825U 93061C   09098.76957132  .00000017  00000-0  23340-4 0 02171
2 22825 098.4294 054.4017 0009252 106.5651 253.6568 14.29262615809998
IO-26
1 22826U 93061D   09099.82189296 -.00000010  00000-0  12446-4 0  9398
2 22826 098.4232 056.1992 0009934 100.8265 259.4035 14.29513832810240
GO-32
1 25397U 98043D   09098.53957391 -.00000018  00000-0  10016-4 0 08641
2 25397 098.3310 124.5937 0002122 086.2116 273.9328 14.23156970558228
NO-44
1 26931U 01043C   09098.88145629  .00000005  00000-0  34140-4 0 01430
2 26931 067.0500 242.8915 0005309 266.6206 093.4283 14.29552986392674
SO-50
1 27607U 02058C   09098.52431942 -.00000056  00000-0  13543-4 0 08578
2 27607 064.5566 236.6638 0074624 221.0823 138.4612 14.71425603338429
CO-55
1 27844U 03031E   09098.54750732  .00000062  00000-0  49066-4 0 05534
2 27844 098.7147 108.6938 0009941 350.1103 009.9885 14.20630807299374
CO-57
1 27848U 03031J   09098.58579776  .00000006  00000-0  23159-4 0 04991
2 27848 098.7171 107.7939 0009952 353.7676 006.3375 14.20433383299344
AO-51
1 28375U 04025K   09098.57963634  .00000003  00000-0  13672-4 0 03603
2 28375 098.0555 112.2356 0084550 337.2204 022.5245 14.40637772250932
CO-56
1 28941U 06005C   09099.72738336  .00042493  31415-5  18243-3 0  9768
2 28941 098.1336 261.7480 0102956 030.1651 330.5504 15.77490548176434
CP3
1 31128U 07012M   09099.65553390 -.00000046  00000-0  00000 0 0  6007
2 31128 097.9944 155.8990 0103548 137.2134 223.7175 14.52031167104954
CP4
1 31132U 07012Q   09098.63033453  .00000085  00000-0  28758-4 0 05839
2 31132 098.0024 158.5785 0086845 129.6925 231.1962 14.55195749104918
CO-65
1 32785U 08021C   09098.42242072  .00000257  00000-0  39552-4 0 03418
2 32785 097.9532 162.9470 0013793 258.1843 101.7806 14.81466188051113
SOHLA-1
1 33496U 09002E   09099.81563307  .00000083  00000-0  22254-4 0  2337
2 33496 098.0314 210.2158 0007527 133.9412 226.2411 14.69428768 11235
NOAA-10
1 16969U 86073A   09098.69014003 -.00000055  00000-0 -42518-5 0 05661
2 16969 098.6975 125.6974 0012905 043.1852 317.0345 14.27383197173594
NOAA-11
1 19531U 88089A   09098.76403372 -.00000206  00000-0 -83783-4 0 05797
2 19531 098.7816 189.7918 0011068 310.0814 049.9387 14.14891308059706
NOAA-12
1 21263U 91032A   09098.97347047  .00000032  00000-0  32479-4 0 00913
2 21263 098.7741 107.0000 0012561 351.7566 008.3405 14.25573135930534
MET-3/5
1 21655U 91056A   09098.94137621  .00000051  00000-0  10000-3 0 06064
2 21655 082.5477 255.4112 0013944 359.2224 000.8874 13.17018684848514
MET-2/21
1 22782U 93055A   09099.69778356  .00000051  00000-0  32383-4 0  4265
2 22782 082.5462 236.3271 0022453 175.1514 184.9867 13.83635270788132
OKEAN-4
1 23317U 94066A   09099.73590850  .00000119  00000-0  11817-4 0  8762
2 23317 082.5408 038.3593 0020626 228.0421 131.9045 14.82686590782224
NOAA-14
1 23455U 94089A   09098.88427638 -.00000069  00000-0 -12991-4 0 05754
2 23455 098.9115 176.7984 0009738 032.7827 327.3921 14.13760713736132
NOAA-15
1 25338U 98030A   09098.80891835 -.00000088  00000-0 -19093-4 0 08824
2 25338 098.5817 089.5508 0009599 259.3522 100.6573 14.24752128566898
RESURS
1 25394U 98043A   09099.73094365 -.00000037  00000-0  15753-5 0  1855
2 25394 098.3497 135.5435 0002451 059.5259 300.6162 14.24181158558650
FENGYUN1
1 25730U 99025A   09098.92313182  .00000111  00000-0  90146-4 0 07318
2 25730 098.7520 071.1687 0023117 055.8779 304.4579 14.07958979510574
OKEAN-0
1 25860U 99039A   09098.77410203  .00000046  00000-0  14314-4 0 06467
2 25860 097.7816 082.7339 0001809 064.8365 295.3023 14.73566473522923
NOAA-16
1 26536U 00055A   09098.80361762 -.00000293  00000-0 -13324-3 0 03582
2 26536 099.1765 100.7933 0011340 114.3374 245.8971 14.12513174440504
NOAA-17
1 27453U 02032A   09098.86308371 -.00000120  00000-0 -33976-4 0 03676
2 27453 098.4910 160.3004 0011050 330.3913 029.6638 14.24052658352884
NOAA-18
1 28654U 05018A   09098.92131397 -.00000192  00000-0 -81639-4 0 08589
2 28654 098.9020 042.7147 0013947 195.2050 164.8717 14.11245643200182
NOAA-19
1 33591U 09005A   09098.81557291  .00000035  00000-0  43106-4 0 00637
2 33591 098.7404 046.4011 0015139 080.2715 280.0144 14.10948485008655
HUBBLE
1 20580U 90037B   09098.61227370  .00000326  00000-0  12371-4 0 03643
2 20580 028.4724 196.2788 0003873 282.6898 077.3245 15.00472071839396
PO-34
1 25520U 98064B   09098.93053206  .00000346  00000-0  72525-5 0 02290
2 25520 028.4601 358.6260 0005289 265.6199 094.3791 15.17319089578129
ISS
1 25544U 98067A   09099.83648148  .00013269  00000-0  10343-3 0  6429
2 25544 051.6405 297.2641 0009107 217.6087 326.9582 15.72038023595197
CO-58
1 28895U 05043F   09098.69648122  .00000117  00000-0  33953-4 0 02740
2 28895 098.0702 351.2294 0017441 201.7847 158.2609 14.59756208183596
FALCON
1 30776U 07006E   09098.62640352  .00000257  00000-0  21702-4 0 05558
2 30776 035.4333 161.4368 0001525 008.7834 351.2909 15.03208173114621
MAST
1 31126U 07012K   09098.85002241 -.00000120  00000-0 -16610-4 0 05675
2 31126 097.9974 156.8085 0095700 134.6986 226.2050 14.53487234104969
CAPE1
1 31130U 07012P   09099.85386432  .00000089  00000-0  31078-4 0  5721
2 31130 097.9985 156.1039 0104331 136.6634 224.2792 14.52047388104772
COMPASS
1 32787U 08021E   09098.33717474  .00000185  00000-0  30413-4 0 03274
2 32787 097.9493 162.7329 0014654 258.4128 101.5439 14.81573920051100
AAUSAT2
1 32788U 08021F   09098.64846947  .00000093  00000-0  18605-4 0 03342
2 32788 097.9492 163.0893 0013992 258.7383 101.2246 14.81695300051155
DO-64
1 32789U 08021G   09099.68193587  .00000556  00000-0  77395-4 0  3360
2 32789 097.9530 164.2367 0014525 252.8154 107.1462 14.81659482 51305
CO-66
1 32791U 08021J   09098.43965020  .00000068  00000-0  15577-4 0 03221
2 32791 097.9517 162.8669 0015054 257.3880 102.5615 14.81409488051089
RS-30
1 32953U 08025A   09098.64666522  .00000010  00000-0  00000-0 0 02770
2 32953 082.4993 299.8671 0018890 333.3497 026.6607 12.43000252039759
/EX






More information about the Keps mailing list